"Date","Time","Latitude","Longitude","Speed","Course","Altitude","Satellites","GPS quality","C1","0.25um","0.28um","0.3um","0.35um","0.4um","0.45um","0.5um","0.58um","C2","0.65um","0.7um","0.8um","1.0um","1.3um","1.6um","2.0um","2.5um","C3","3.0um","3.5um","4.0um","5.0um","6.5um","7.5um","8.5um","10.0um","C4","12.5um","15.0um","17.5um","20.0um","25.0um","30.0um","32.0um",">32um"
25/10/11,10:22:07,51 53.6372 N,002 10.1799 W,89.94,84.02,27.1,09,1,N2,22,21,21,21,20,20,20,19,N2,19,19,19,19,18,17,17,14,n2,13,8,8,8,0,0,0,0,n2,0,0,0,0,0,0,0,0
25/10/11,10:22:13,51 53.6565 N,002 09.9030 W,108.63,83.43,32.2,09,1,N3,29,29,28,28,28,28,27,27,N3,26,26,26,25,25,24,18,16,n3,3,0,0,0,0,0,0,0,n3,0,0,0,0,0,0,0,0
25/10/11,10:22:19,51 53.6812 N,002 09.5958 W,116.09,82.04,58.5,09,1,N4,48,48,47,47,47,47,46,46,N4,46,45,45,45,45,44,43,43,n4,25,16,16,16,0,0,0,0,n4,0,0,0,0,0,0,0,0
25/10/11,10:22:24,51 53.6953 N,002 09.3327 W,117.51,86.63,90.0,09,1,N5,19,19,19,18,18,18,18,18,N5,17,17,17,16,16,14,12,7,n5,3,3,0,0,0,0,0,0,n5,0,0,0,0,0,0,0,0
25/10/11,10:22:30,51 53.7005 N,002 09.0101 W,120.05,89.35,135.7,09,1,N6,16,15,14,14,14,14,13,13,N6,13,12,12,11,10,9,8,7,n6,4,0,0,0,0,0,0,0,n6,0,0,0,0,0,0,0,0
25/10/11,10:22:37,51 53.6950 N,002 08.6255 W,123.01,92.19,188.2,09,1,N7,24,23,23,23,22,22,22,21,N7,21,21,20,20,20,20,20,17,n7,16,14,8,8,0,0,0,0,n7,0,0,0,0,0,0,0,0
25/10/11,10:22:43,51 53.6822 N,002 08.2910 W,124.17,93.88,235.4,09,1,N8,29,28,28,28,27,27,27,27,N8,26,25,25,24,24,23,22,20,n8,11,3,0,0,0,0,0,0,n8,0,0,0,0,0,0,0,0
25/10/11,10:22:49,51 53.6622 N,002 07.9430 W,132.72,96.09,259.3,09,1,N9,21,20,20,20,19,19,19,19,N9,18,17,17,17,15,15,13,11,n9,9,9,4,0,0,0,0,0,n9,0,0,0,0,0,0,0,0
25/10/11,10:22:54,51 53.6389 N,002 07.6413 W,135.20,97.35,284.9,09,1,N0,37,37,37,36,36,36,36,36,N0,35,34,34,34,34,34,32,31,n0,23,23,23,16,16,0,0,0,n0,0,0,0,0,0,0,0,0
25/10/11,10:23:00,51 53.6058 N,002 07.2885 W,130.64,99.39,337.0,09,1,N1,46,45,44,44,44,44,43,43,N1,43,42,42,42,41,40,39,36,n1,29,22,16,16,0,0,0,0,n1,0,0,0,0,0,0,0,0
25/10/11,10:23:07,51 53.5655 N,002 06.8915 W,126.12,99.04,395.5,09,1,N2,24,24,23,23,22,22,22,22,N2,22,21,21,21,19,17,15,15,n2,13,11,8,8,0,0,0,0,n2,0,0,0,0,0,0,0,0
25/10/11,10:23:13,51 53.5341 N,002 06.5622 W,122.32,98.81,448.0,09,1,N3,29,28,28,28,27,27,27,27,N3,27,26,26,25,25,24,21,19,n3,17,9,0,0,0,0,0,0,n3,0,0,0,0,0,0,0,0
25/10/11,10:23:19,51 53.5067 N,002 06.2380 W,120.93,97.27,495.2,09,1,N4,31,31,30,30,30,30,30,29,N4,29,29,29,29,28,27,23,22,n4,14,3,0,0,0,0,0,0,n4,0,0,0,0,0,0,0,0
25/10/11,10:23:24,51 53.4877 N,002 05.9709 W,119.23,96.26,533.2,10,1,N5,21,21,20,20,20,20,20,20,N5,19,19,19,19,19,19,19,17,n5,5,0,0,0,0,0,0,0,n5,0,0,0,0,0,0,0,0
25/10/11,10:23:30,51 53.4652 N,002 05.6546 W,117.83,96.52,574.9,10,1,N6,4,4,3,3,3,3,2,2,N6,2,2,1,1,1,1,0,0,n6,0,0,0,0,0,0,0,0,n6,0,0,0,0,0,0,0,0
25/10/11,10:23:37,51 53.4377 N,002 05.2842 W,120.31,96.83,615.9,10,1,N7,37,37,36,36,35,35,35,35,N7,34,34,34,33,33,32,29,26,n7,20,19,16,16,0,0,0,0,n7,0,0,0,0,0,0,0,0
25/10/11,10:23:43,51 53.4129 N,002 04.9604 W,121.89,96.99,655.5,10,1,N8,22,21,20,20,20,19,19,19,N8,18,18,17,17,16,15,15,10,n8,7,7,4,0,0,0,0,0,n8,0,0,0,0,0,0,0,0
25/10/11,10:23:49,51 53.3873 N,002 04.6328 W,122.96,97.09,698.2,10,1,N9,13,12,12,12,12,11,11,11,N9,11,11,10,10,10,10,8,7,n9,3,3,0,0,0,0,0,0,n9,0,0,0,0,0,0,0,0
25/10/11,10:23:54,51 53.3650 N,002 04.3597 W,122.55,97.79,738.6,10,1,N0,12,11,11,11,11,11,11,11,N0,10,10,10,10,10,10,10,8,n0,4,4,4,4,0,0,0,0,n0,0,0,0,0,0,0,0,0
25/10/11,10:24:00,51 53.3163 N,002 04.0444 W,119.85,107.91,785.1,10,1,N1,2,2,2,2,2,2,2,2,N1,2,1,1,1,1,1,0,0,n1,0,0,0,0,0,0,0,0,n1,0,0,0,0,0,0,0,0
25/10/11,10:24:07,51 53.2107 N,002 03.7183 W,116.30,122.02,835.5,10,1,N2,7,7,7,7,7,7,7,6,N2,6,6,6,6,6,6,6,5,n2,0,0,0,0,0,0,0,0,n2,0,0,0,0,0,0,0,0
25/10/11,10:24:13,51 53.0987 N,002 03.4655 W,115.23,126.42,877.9,10,1,N3,1,1,1,1,1,1,1,1,N3,1,1,0,0,0,0,0,0,n3,0,0,0,0,0,0,0,0,n3,0,0,0,0,0,0,0,0
25/10/11,10:24:19,51 52.9850 N,002 03.2157 W,115.22,125.62,920.8,10,1,N4,9,9,9,9,9,9,9,9,N4,9,9,9,8,7,7,6,5,n4,0,0,0,0,0,0,0,0,n4,0,0,0,0,0,0,0,0
25/10/11,10:24:24,51 52.8955 N,002 03.0020 W,115.02,123.05,957.6,11,1,N5,1,1,0,0,0,0,0,0,N5,0,0,0,0,0,0,0,0,n5,0,0,0,0,0,0,0,0,n5,0,0,0,0,0,0,0,0
25/10/11,10:24:30,51 52.7980 N,002 02.7363 W,114.65,119.42,1002.5,11,1,N6,11,11,11,11,11,11,11,11,N6,11,10,10,10,10,10,10,10,n6,0,0,0,0,0,0,0,0,n6,0,0,0,0,0,0,0,0
25/10/11,10:24:37,51 52.6955 N,002 02.4223 W,112.40,116.59,1057.9,11,1,N7,13,12,12,12,12,12,12,12,N7,12,12,11,11,10,10,10,7,n7,4,0,0,0,0,0,0,0,n7,0,0,0,0,0,0,0,0
25/10/11,10:24:43,51 52.6189 N,002 02.1468 W,112.45,113.00,1101.5,11,1,N8,1,1,1,1,1,1,1,1,N8,1,1,1,0,0,0,0,0,n8,0,0,0,0,0,0,0,0,n8,0,0,0,0,0,0,0,0
25/10/11,10:24:49,51 52.5513 N,002 01.8608 W,114.72,109.66,1139.9,11,1,N9,16,16,16,16,15,15,15,15,N9,15,15,14,14,13,13,13,12,n9,3,3,0,0,0,0,0,0,n9,0,0,0,0,0,0,0,0
25/10/11,10:24:54,51 52.4948 N,002 01.6170 W,116.45,111.34,1168.4,11,1,N0,6,6,6,6,6,6,6,6,N0,6,6,6,6,5,5,5,5,n0,0,0,0,0,0,0,0,0,n0,0,0,0,0,0,0,0,0
25/10/11,10:25:00,51 52.4189 N,002 01.3296 W,115.94,113.87,1207.3,11,1,N1,1,1,0,0,0,0,0,0,N1,0,0,0,0,0,0,0,0,n1,0,0,0,0,0,0,0,0,n1,0,0,0,0,0,0,0,0
25/10/11,10:25:07,51 52.3258 N,002 01.0013 W,114.77,114.58,1256.2,11,1,N2,12,11,11,11,11,11,11,11,N2,11,11,11,11,11,11,8,7,n2,4,0,0,0,0,0,0,0,n2,0,0,0,0,0,0,0,0
25/10/11,10:25:13,51 52.2462 N,002 00.7212 W,114.50,114.40,1296.6,11,1,N3,17,17,17,17,17,17,17,17,N3,17,17,17,16,16,16,16,16,n3,15,12,12,8,0,0,0,0,n3,0,0,0,0,0,0,0,0
25/10/11,10:25:19,51 52.1689 N,002 00.4428 W,112.85,114.08,1340.9,11,1,N4,2,2,1,1,1,1,1,1,N4,1,1,1,1,0,0,0,0,n4,0,0,0,0,0,0,0,0,n4,0,0,0,0,0,0,0,0
25/10/11,10:25:24,51 52.1056 N,002 00.2145 W,111.19,114.13,1378.2,11,1,N5,2,2,2,2,2,2,2,2,N5,2,1,1,1,1,1,0,0,n5,0,0,0,0,0,0,0,0,n5,0,0,0,0,0,0,0,0
25/10/11,10:25:30,51 52.0306 N,001 59.9417 W,111.08,113.69,1418.9,11,1,N6,1,1,1,1,1,1,0,0,N6,0,0,0,0,0,0,0,0,n6,0,0,0,0,0,0,0,0,n6,0,0,0,0,0,0,0,0
25/10/11,10:25:37,51 51.9443 N,001 59.6170 W,113.89,112.37,1459.1,11,1,N7,0,0,0,0,0,0,0,0,N7,0,0,0,0,0,0,0,0,n7,0,0,0,0,0,0,0,0,n7,0,0,0,0,0,0,0,0
25/10/11,10:25:43,51 51.8759 N,001 59.3278 W,115.74,109.94,1496.4,11,1,N8,2,2,1,1,1,1,1,1,N8,1,0,0,0,0,0,0,0,n8,0,0,0,0,0,0,0,0,n8,0,0,0,0,0,0,0,0
25/10/11,10:25:49,51 51.8092 N,001 59.0388 W,114.03,110.97,1538.9,11,1,N9,13,12,12,12,12,12,12,12,N9,12,11,11,11,11,11,11,9,n9,9,3,0,0,0,0,0,0,n9,0,0,0,0,0,0,0,0
25/10/11,10:25:54,51 51.7517 N,001 58.8036 W,112.44,111.68,1574.9,11,1,N0,1,0,0,0,0,0,0,0,N0,0,0,0,0,0,0,0,0,n0,0,0,0,0,0,0,0,0,n0,0,0,0,0,0,0,0,0
25/10/11,10:26:00,51 51.6831 N,001 58.5242 W,111.76,111.31,1616.7,11,1,N1,0,0,0,0,0,0,0,0,N1,0,0,0,0,0,0,0,0,n1,0,0,0,0,0,0,0,0,n1,0,0,0,0,0,0,0,0
25/10/11,10:26:07,51 51.6023 N,001 58.2015 W,109.74,114.20,1665.3,11,1,N2,4,4,3,3,3,3,3,3,N2,3,3,3,3,3,3,3,0,n2,0,0,0,0,0,0,0,0,n2,0,0,0,0,0,0,0,0
25/10/11,10:26:13,51 51.5214 N,001 57.9445 W,106.45,117.61,1710.3,11,1,N3,1,1,1,1,1,1,1,1,N3,1,0,0,0,0,0,0,0,n3,0,0,0,0,0,0,0,0,n3,0,0,0,0,0,0,0,0
25/10/11,10:26:19,51 51.4388 N,001 57.6955 W,104.69,118.39,1751.7,11,1,N4,2,2,2,2,2,2,2,2,N4,2,2,2,1,1,1,0,0,n4,0,0,0,0,0,0,0,0,n4,0,0,0,0,0,0,0,0
25/10/11,10:26:24,51 51.3677 N,001 57.4904 W,105.05,119.48,1779.4,11,1,N5,0,0,0,0,0,0,0,0,N5,0,0,0,0,0,0,0,0,n5,0,0,0,0,0,0,0,0,n5,0,0,0,0,0,0,0,0
25/10/11,10:26:30,51 51.2779 N,001 57.2461 W,106.08,121.03,1810.0,11,1,N6,0,0,0,0,0,0,0,0,N6,0,0,0,0,0,0,0,0,n6,0,0,0,0,0,0,0,0,n6,0,0,0,0,0,0,0,0
25/10/11,10:26:37,51 51.1715 N,001 56.9666 W,103.77,121.60,1854.8,11,1,N7,5,5,4,4,4,4,4,4,N7,4,4,4,4,4,4,1,0,n7,0,0,0,0,0,0,0,0,n7,0,0,0,0,0,0,0,0
25/10/11,10:26:43,51 51.0815 N,001 56.7338 W,101.54,122.12,1893.8,11,1,N8,0,0,0,0,0,0,0,0,N8,0,0,0,0,0,0,0,0,n8,0,0,0,0,0,0,0,0,n8,0,0,0,0,0,0,0,0
25/10/11,10:26:49,51 50.9880 N,001 56.5096 W,100.24,124.88,1927.2,11,1,N9,10,10,10,10,10,10,10,10,N9,10,10,10,10,10,10,8,8,n9,6,3,0,0,0,0,0,0,n9,0,0,0,0,0,0,0,0
25/10/11,10:26:54,51 50.9065 N,001 56.3272 W,100.78,125.84,1952.3,11,1,N0,0,0,0,0,0,0,0,0,N0,0,0,0,0,0,0,0,0,n0,0,0,0,0,0,0,0,0,n0,0,0,0,0,0,0,0,0
25/10/11,10:27:00,51 50.8070 N,001 56.1066 W,102.11,125.97,1981.7,11,1,N1,6,6,6,6,6,6,6,6,N1,5,5,5,5,5,5,5,5,n1,0,0,0,0,0,0,0,0,n1,0,0,0,0,0,0,0,0
25/10/11,10:27:07,51 50.6920 N,001 55.8443 W,102.67,124.62,2020.0,11,1,N2,0,0,0,0,0,0,0,0,N2,0,0,0,0,0,0,0,0,n2,0,0,0,0,0,0,0,0,n2,0,0,0,0,0,0,0,0
25/10/11,10:27:13,51 50.5951 N,001 55.6212 W,100.89,125.11,2058.6,11,1,N3,3,3,3,3,3,3,3,3,N3,3,3,3,3,2,2,1,0,n3,0,0,0,0,0,0,0,0,n3,0,0,0,0,0,0,0,0
25/10/11,10:27:19,51 50.4960 N,001 55.4061 W,99.37,127.10,2095.5,11,1,N4,0,0,0,0,0,0,0,0,N4,0,0,0,0,0,0,0,0,n4,0,0,0,0,0,0,0,0,n4,0,0,0,0,0,0,0,0
25/10/11,10:27:24,51 50.4124 N,001 55.2290 W,99.76,127.19,2123.0,11,1,N5,0,0,0,0,0,0,0,0,N5,0,0,0,0,0,0,0,0,n5,0,0,0,0,0,0,0,0,n5,0,0,0,0,0,0,0,0
25/10/11,10:27:30,51 50.3102 N,001 55.0127 W,101.67,127.74,2148.6,11,1,N6,0,0,0,0,0,0,0,0,N6,0,0,0,0,0,0,0,0,n6,0,0,0,0,0,0,0,0,n6,0,0,0,0,0,0,0,0
25/10/11,10:27:37,51 50.1767 N,001 54.7483 W,112.41,129.78,2153.9,11,1,N7,1,1,1,1,1,1,1,1,N7,1,1,1,1,1,1,0,0,n7,0,0,0,0,0,0,0,0,n7,0,0,0,0,0,0,0,0
25/10/11,10:27:43,51 50.0552 N,001 54.5058 W,117.42,128.33,2170.5,11,1,N8,1,1,1,1,1,1,1,1,N8,1,1,1,1,1,1,1,0,n8,0,0,0,0,0,0,0,0,n8,0,0,0,0,0,0,0,0
25/10/11,10:27:49,51 49.9237 N,001 54.2558 W,124.40,131.16,2173.7,11,1,N9,1,1,1,1,1,1,1,1,N9,1,1,1,1,1,1,0,0,n9,0,0,0,0,0,0,0,0,n9,0,0,0,0,0,0,0,0
25/10/11,10:27:54,51 49.8025 N,001 54.0415 W,131.58,132.78,2165.7,11,1,N0,1,1,1,1,1,0,0,0,N0,0,0,0,0,0,0,0,0,n0,0,0,0,0,0,0,0,0,n0,0,0,0,0,0,0,0,0
25/10/11,10:28:00,51 49.6407 N,001 53.7728 W,142.93,134.52,2146.0,11,1,N1,0,0,0,0,0,0,0,0,N1,0,0,0,0,0,0,0,0,n1,0,0,0,0,0,0,0,0,n1,0,0,0,0,0,0,0,0
25/10/11,10:28:07,51 49.4380 N,001 53.4474 W,148.45,135.33,2136.6,11,1,N2,0,0,0,0,0,0,0,0,N2,0,0,0,0,0,0,0,0,n2,0,0,0,0,0,0,0,0,n2,0,0,0,0,0,0,0,0
25/10/11,10:28:13,51 49.2624 N,001 53.1662 W,147.89,134.97,2132.6,11,1,N3,0,0,0,0,0,0,0,0,N3,0,0,0,0,0,0,0,0,n3,0,0,0,0,0,0,0,0,n3,0,0,0,0,0,0,0,0
25/10/11,10:28:19,51 49.0923 N,001 52.8844 W,145.37,133.92,2132.5,11,1,N4,2,2,1,1,1,1,1,1,N4,1,1,1,1,1,1,1,0,n4,0,0,0,0,0,0,0,0,n4,0,0,0,0,0,0,0,0
25/10/11,10:28:24,51 48.9551 N,001 52.6520 W,142.32,133.37,2137.1,11,1,N5,1,0,0,0,0,0,0,0,N5,0,0,0,0,0,0,0,0,n5,0,0,0,0,0,0,0,0,n5,0,0,0,0,0,0,0,0
25/10/11,10:28:30,51 48.7969 N,001 52.3782 W,137.96,132.71,2143.8,11,1,N6,1,1,1,1,1,1,1,1,N6,1,1,1,1,1,1,1,0,n6,0,0,0,0,0,0,0,0,n6,0,0,0,0,0,0,0,0
25/10/11,10:28:37,51 48.6182 N,001 52.0620 W,135.73,132.13,2143.0,11,1,N7,1,0,0,0,0,0,0,0,N7,0,0,0,0,0,0,0,0,n7,0,0,0,0,0,0,0,0,n7,0,0,0,0,0,0,0,0
25/10/11,10:28:43,51 48.4671 N,001 51.7951 W,134.09,132.57,2141.5,11,1,N8,0,0,0,0,0,0,0,0,N8,0,0,0,0,0,0,0,0,n8,0,0,0,0,0,0,0,0,n8,0,0,0,0,0,0,0,0
25/10/11,10:28:49,51 48.3150 N,001 51.5327 W,133.77,133.36,2140.7,11,1,N9,0,0,0,0,0,0,0,0,N9,0,0,0,0,0,0,0,0,n9,0,0,0,0,0,0,0,0,n9,0,0,0,0,0,0,0,0
25/10/11,10:28:54,51 48.1861 N,001 51.3176 W,133.74,134.23,2139.6,11,1,N0,0,0,0,0,0,0,0,0,N0,0,0,0,0,0,0,0,0,n0,0,0,0,0,0,0,0,0,n0,0,0,0,0,0,0,0,0
25/10/11,10:29:00,51 48.0290 N,001 51.0634 W,133.67,135.15,2139.2,11,1,N1,0,0,0,0,0,0,0,0,N1,0,0,0,0,0,0,0,0,n1,0,0,0,0,0,0,0,0,n1,0,0,0,0,0,0,0,0
25/10/11,10:29:07,51 47.8425 N,001 50.7731 W,133.39,136.42,2138.5,11,1,N2,0,0,0,0,0,0,0,0,N2,0,0,0,0,0,0,0,0,n2,0,0,0,0,0,0,0,0,n2,0,0,0,0,0,0,0,0
25/10/11,10:29:13,51 47.6800 N,001 50.5287 W,133.52,137.17,2137.9,11,1,N3,13,13,13,13,13,13,13,13,N3,13,13,12,12,12,12,12,12,n3,5,0,0,0,0,0,0,0,n3,0,0,0,0,0,0,0,0
25/10/11,10:29:19,51 47.5151 N,001 50.2893 W,133.21,138.59,2137.3,11,1,N4,0,0,0,0,0,0,0,0,N4,0,0,0,0,0,0,0,0,n4,0,0,0,0,0,0,0,0,n4,0,0,0,0,0,0,0,0
25/10/11,10:29:24,51 47.3716 N,001 50.0992 W,134.36,141.23,2129.0,11,1,N5,1,1,1,1,1,1,1,1,N5,1,1,1,1,1,1,1,0,n5,0,0,0,0,0,0,0,0,n5,0,0,0,0,0,0,0,0
25/10/11,10:29:30,51 47.1945 N,001 49.8791 W,133.86,142.88,2126.3,11,1,N6,1,0,0,0,0,0,0,0,N6,0,0,0,0,0,0,0,0,n6,0,0,0,0,0,0,0,0,n6,0,0,0,0,0,0,0,0
25/10/11,10:29:37,51 46.9854 N,001 49.6347 W,132.78,144.51,2119.2,11,1,N7,2,2,2,2,2,2,2,2,N7,1,1,1,1,1,1,0,0,n7,0,0,0,0,0,0,0,0,n7,0,0,0,0,0,0,0,0
25/10/11,10:29:43,51 46.8031 N,001 49.4316 W,133.30,145.60,2108.4,11,1,N8,7,7,7,7,6,6,6,6,N8,6,6,6,6,6,6,5,5,n8,0,0,0,0,0,0,0,0,n8,0,0,0,0,0,0,0,0
25/10/11,10:29:49,51 46.6182 N,001 49.2335 W,133.39,146.58,2097.9,11,1,N9,0,0,0,0,0,0,0,0,N9,0,0,0,0,0,0,0,0,n9,0,0,0,0,0,0,0,0,n9,0,0,0,0,0,0,0,0
25/10/11,10:29:54,51 46.4626 N,001 49.0711 W,133.77,147.10,2088.7,11,1,N0,1,0,0,0,0,0,0,0,N0,0,0,0,0,0,0,0,0,n0,0,0,0,0,0,0,0,0,n0,0,0,0,0,0,0,0,0
25/10/11,10:30:00,51 46.2745 N,001 48.8784 W,133.98,147.56,2077.9,11,1,N1,10,10,10,10,10,10,10,10,N1,10,10,10,9,9,9,9,9,n1,7,3,0,0,0,0,0,0,n1,0,0,0,0,0,0,0,0
25/10/11,10:30:07,51 46.0539 N,001 48.6557 W,133.99,148.18,2065.2,11,1,N2,3,3,3,3,3,3,3,3,N2,3,3,3,2,2,2,1,0,n2,0,0,0,0,0,0,0,0,n2,0,0,0,0,0,0,0,0
25/10/11,10:30:13,51 45.8650 N,001 48.4639 W,134.40,146.65,2054.5,11,1,N3,4,4,4,4,4,4,4,4,N3,4,4,4,3,3,2,1,0,n3,0,0,0,0,0,0,0,0,n3,0,0,0,0,0,0,0,0
25/10/11,10:30:19,51 45.6855 N,001 48.2456 W,135.55,141.17,2045.9,11,1,N4,8,8,8,8,8,8,8,8,N4,8,8,8,7,7,7,5,5,n4,1,0,0,0,0,0,0,0,n4,0,0,0,0,0,0,0,0
25/10/11,10:30:24,51 45.5444 N,001 48.0444 W,136.12,137.40,2040.1,11,1,N5,1,0,0,0,0,0,0,0,N5,0,0,0,0,0,0,0,0,n5,0,0,0,0,0,0,0,0,n5,0,0,0,0,0,0,0,0
25/10/11,10:30:30,51 45.3829 N,001 47.7843 W,137.91,133.88,2029.6,11,1,N6,1,0,0,0,0,0,0,0,N6,0,0,0,0,0,0,0,0,n6,0,0,0,0,0,0,0,0,n6,0,0,0,0,0,0,0,0
25/10/11,10:30:37,51 45.2029 N,001 47.4594 W,139.81,130.68,2015.6,11,1,N7,5,5,5,5,5,5,5,5,N7,5,5,5,5,5,5,5,5,n7,0,0,0,0,0,0,0,0,n7,0,0,0,0,0,0,0,0
25/10/11,10:30:43,51 45.0536 N,001 47.1654 W,142.48,128.69,1998.6,11,1,N8,2,2,2,2,2,2,2,1,N8,1,1,1,1,1,1,1,0,n8,0,0,0,0,0,0,0,0,n8,0,0,0,0,0,0,0,0
25/10/11,10:30:49,51 44.9079 N,001 46.8599 W,144.42,127.02,1981.4,11,1,N9,1,1,1,1,1,1,1,1,N9,1,1,1,1,1,1,1,0,n9,0,0,0,0,0,0,0,0,n9,0,0,0,0,0,0,0,0
25/10/11,10:30:54,51 44.7889 N,001 46.5984 W,145.19,125.99,1966.8,11,1,N0,1,1,0,0,0,0,0,0,N0,0,0,0,0,0,0,0,0,n0,0,0,0,0,0,0,0,0,n0,0,0,0,0,0,0,0,0
25/10/11,10:31:00,51 44.6511 N,001 46.2799 W,144.52,124.33,1947.6,11,1,N1,4,3,3,3,3,3,3,3,N1,3,3,3,3,3,3,3,0,n1,0,0,0,0,0,0,0,0,n1,0,0,0,0,0,0,0,0
25/10/11,10:31:07,51 44.4993 N,001 45.9018 W,143.55,122.25,1930.1,11,1,N2,6,6,6,6,6,6,6,6,N2,6,6,5,5,5,5,5,5,n2,0,0,0,0,0,0,0,0,n2,0,0,0,0,0,0,0,0
25/10/11,10:31:13,51 44.3764 N,001 45.5737 W,142.60,120.64,1914.8,11,1,N3,1,1,1,1,1,1,1,1,N3,1,0,0,0,0,0,0,0,n3,0,0,0,0,0,0,0,0,n3,0,0,0,0,0,0,0,0
25/10/11,10:31:19,51 44.2594 N,001 45.2428 W,141.87,119.29,1901.1,11,1,N4,0,0,0,0,0,0,0,0,N4,0,0,0,0,0,0,0,0,n4,0,0,0,0,0,0,0,0,n4,0,0,0,0,0,0,0,0
25/10/11,10:31:24,51 44.1656 N,001 44.9657 W,141.06,118.38,1891.0,11,1,N5,24,24,23,23,23,23,23,23,N5,23,23,23,23,22,22,21,21,n5,18,8,8,8,0,0,0,0,n5,0,0,0,0,0,0,0,0
25/10/11,10:31:30,51 44.0563 N,001 44.6323 W,140.43,117.71,1878.5,11,1,N6,0,0,0,0,0,0,0,0,N6,0,0,0,0,0,0,0,0,n6,0,0,0,0,0,0,0,0,n6,0,0,0,0,0,0,0,0
25/10/11,10:31:37,51 43.9313 N,001 44.2438 W,139.63,117.48,1863.2,11,1,N7,3,3,3,3,3,3,3,3,N7,3,3,3,3,3,3,3,0,n7,0,0,0,0,0,0,0,0,n7,0,0,0,0,0,0,0,0
25/10/11,10:31:43,51 43.8234 N,001 43.9128 W,139.37,117.94,1846.6,11,1,N8,1,1,1,1,1,1,1,1,N8,1,1,1,1,0,0,0,0,n8,0,0,0,0,0,0,0,0,n8,0,0,0,0,0,0,0,0
25/10/11,10:31:49,51 43.7128 N,001 43.5856 W,138.86,118.93,1829.7,11,1,N9,1,1,1,1,1,1,1,1,N9,0,0,0,0,0,0,0,0,n9,0,0,0,0,0,0,0,0,n9,0,0,0,0,0,0,0,0
25/10/11,10:31:54,51 43.6180 N,001 43.3165 W,138.46,119.86,1814.7,11,1,N0,4,4,4,4,4,4,4,4,N0,4,3,3,3,3,3,3,0,n0,0,0,0,0,0,0,0,0,n0,0,0,0,0,0,0,0,0
25/10/11,10:32:00,51 43.5003 N,001 42.9979 W,138.32,121.28,1794.4,11,1,N1,13,13,13,13,13,12,12,12,N1,12,12,12,12,12,11,10,10,n1,8,4,4,0,0,0,0,0,n1,0,0,0,0,0,0,0,0
25/10/11,10:32:07,51 43.3572 N,001 42.6328 W,138.04,122.82,1770.5,11,1,N2,1,1,1,1,1,1,0,0,N2,0,0,0,0,0,0,0,0,n2,0,0,0,0,0,0,0,0,n2,0,0,0,0,0,0,0,0
25/10/11,10:32:13,51 43.2304 N,001 42.3239 W,138.30,123.76,1748.4,11,1,N3,0,0,0,0,0,0,0,0,N3,0,0,0,0,0,0,0,0,n3,0,0,0,0,0,0,0,0,n3,0,0,0,0,0,0,0,0
25/10/11,10:32:19,51 43.0995 N,001 42.0187 W,138.50,125.05,1725.4,11,1,N4,0,0,0,0,0,0,0,0,N4,0,0,0,0,0,0,0,0,n4,0,0,0,0,0,0,0,0,n4,0,0,0,0,0,0,0,0
25/10/11,10:32:24,51 42.9876 N,001 41.7667 W,138.75,125.73,1706.9,11,1,N5,2,2,2,2,2,2,1,1,N5,1,1,1,1,1,1,1,0,n5,0,0,0,0,0,0,0,0,n5,0,0,0,0,0,0,0,0
25/10/11,10:32:30,51 42.8504 N,001 41.4678 W,138.72,126.74,1685.2,11,1,N6,13,13,13,12,12,12,12,12,N6,12,12,12,12,12,12,12,12,n6,4,0,0,0,0,0,0,0,n6,0,0,0,0,0,0,0,0
25/10/11,10:32:37,51 42.6869 N,001 41.1232 W,138.88,127.55,1657.8,11,1,N7,1,1,1,1,1,1,1,1,N7,0,0,0,0,0,0,0,0,n7,0,0,0,0,0,0,0,0,n7,0,0,0,0,0,0,0,0
25/10/11,10:32:43,51 42.5445 N,001 40.8300 W,138.90,128.20,1635.3,11,1,N8,5,5,5,5,5,5,5,5,N8,5,5,5,5,5,5,5,5,n8,0,0,0,0,0,0,0,0,n8,0,0,0,0,0,0,0,0
25/10/11,10:32:49,51 42.4005 N,001 40.5388 W,139.03,128.57,1612.4,11,1,N9,2,2,2,2,2,2,2,1,N9,1,1,1,1,1,1,1,0,n9,0,0,0,0,0,0,0,0,n9,0,0,0,0,0,0,0,0
25/10/11,10:32:54,51 42.2796 N,001 40.2972 W,139.01,128.91,1595.2,11,1,N0,3,3,3,3,3,3,3,3,N0,2,2,2,2,2,2,0,0,n0,0,0,0,0,0,0,0,0,n0,0,0,0,0,0,0,0,0
25/10/11,10:33:00,51 42.1340 N,001 40.0084 W,138.91,129.02,1577.0,11,1,N1,2,1,1,1,1,1,1,1,N1,1,1,1,1,1,1,0,0,n1,0,0,0,0,0,0,0,0,n1,0,0,0,0,0,0,0,0
25/10/11,10:33:07,51 41.9639 N,001 39.6719 W,138.83,129.09,1559.7,11,1,N2,0,0,0,0,0,0,0,0,N2,0,0,0,0,0,0,0,0,n2,0,0,0,0,0,0,0,0,n2,0,0,0,0,0,0,0,0
25/10/11,10:33:13,51 41.8181 N,001 39.3819 W,139.48,129.01,1546.1,11,1,N3,20,20,20,20,20,19,19,19,N3,19,19,19,19,19,18,17,15,n3,11,3,0,0,0,0,0,0,n3,0,0,0,0,0,0,0,0
25/10/11,10:33:19,51 41.6723 N,001 39.0917 W,139.29,128.87,1532.3,11,1,N4,14,14,14,14,14,14,14,14,N4,14,14,14,14,14,14,14,12,n4,5,0,0,0,0,0,0,0,n4,0,0,0,0,0,0,0,0
25/10/11,10:33:24,51 41.5511 N,001 38.8493 W,139.46,128.74,1519.8,11,1,N5,4,3,3,3,3,3,3,3,N5,3,3,3,2,2,2,1,0,n5,0,0,0,0,0,0,0,0,n5,0,0,0,0,0,0,0,0
25/10/11,10:33:30,51 41.4066 N,001 38.5573 W,139.39,128.33,1504.5,11,1,N6,10,10,10,10,10,9,9,9,N6,9,9,9,9,8,8,7,7,n6,4,0,0,0,0,0,0,0,n6,0,0,0,0,0,0,0,0
25/10/11,10:33:37,51 41.2398 N,001 38.2141 W,139.54,127.84,1484.3,11,1,N7,17,17,16,16,16,16,16,16,N7,16,16,16,15,15,15,14,14,n7,12,8,8,8,0,0,0,0,n7,0,0,0,0,0,0,0,0
25/10/11,10:33:43,51 41.0978 N,001 37.9175 W,140.00,127.45,1465.8,11,1,N8,1,1,0,0,0,0,0,0,N8,0,0,0,0,0,0,0,0,n8,0,0,0,0,0,0,0,0,n8,0,0,0,0,0,0,0,0
25/10/11,10:33:49,51 40.9572 N,001 37.6181 W,140.25,126.83,1446.7,11,1,N9,6,6,6,6,6,6,6,6,N9,6,5,5,5,4,4,4,0,n9,0,0,0,0,0,0,0,0,n9,0,0,0,0,0,0,0,0
25/10/11,10:33:54,51 40.8412 N,001 37.3666 W,140.38,126.47,1431.2,11,1,N0,10,10,9,9,9,9,9,9,N0,9,9,9,9,9,8,8,7,n0,4,0,0,0,0,0,0,0,n0,0,0,0,0,0,0,0,0
25/10/11,10:34:00,51 40.7035 N,001 37.0623 W,140.77,125.80,1412.5,11,1,N1,7,7,7,7,7,7,7,7,N1,7,6,6,6,6,5,5,5,n1,0,0,0,0,0,0,0,0,n1,0,0,0,0,0,0,0,0
25/10/11,10:34:07,51 40.5446 N,001 36.7046 W,140.83,125.35,1392.4,11,1,N2,9,9,9,9,9,8,8,8,N2,8,8,8,8,8,7,5,5,n2,0,0,0,0,0,0,0,0,n2,0,0,0,0,0,0,0,0
25/10/11,10:34:13,51 40.4095 N,001 36.3961 W,141.10,125.05,1374.8,11,1,N3,30,30,29,29,29,29,29,29,N3,29,29,29,29,28,28,28,25,n3,11,3,0,0,0,0,0,0,n3,0,0,0,0,0,0,0,0
25/10/11,10:34:19,51 40.2753 N,001 36.0862 W,141.04,124.80,1357.5,11,1,N4,7,7,6,6,6,6,6,6,N4,6,6,6,6,6,5,5,5,n4,0,0,0,0,0,0,0,0,n4,0,0,0,0,0,0,0,0
25/10/11,10:34:24,51 40.1636 N,001 35.8276 W,141.24,124.77,1341.4,11,1,N5,1,1,1,1,1,0,0,0,N5,0,0,0,0,0,0,0,0,n5,0,0,0,0,0,0,0,0,n5,0,0,0,0,0,0,0,0
25/10/11,10:34:30,51 40.0297 N,001 35.5165 W,141.47,124.65,1321.4,11,1,N6,4,4,3,3,3,3,3,3,N6,3,3,3,3,2,2,0,0,n6,0,0,0,0,0,0,0,0,n6,0,0,0,0,0,0,0,0
25/10/11,10:34:37,51 39.8744 N,001 35.1540 W,140.42,124.36,1294.6,11,1,N7,10,9,9,9,9,9,9,9,N7,9,9,8,8,8,8,7,7,n7,4,0,0,0,0,0,0,0,n7,0,0,0,0,0,0,0,0
25/10/11,10:34:43,51 39.7417 N,001 34.8432 W,141.18,124.55,1264.7,11,1,N8,10,9,9,9,9,9,9,9,N8,9,9,9,9,8,8,7,7,n8,3,3,0,0,0,0,0,0,n8,0,0,0,0,0,0,0,0
25/10/11,10:34:49,51 39.6075 N,001 34.5319 W,141.77,124.77,1234.1,11,1,N9,3,2,2,2,2,2,2,2,N9,2,2,2,2,1,1,1,0,n9,0,0,0,0,0,0,0,0,n9,0,0,0,0,0,0,0,0
25/10/11,10:34:54,51 39.4945 N,001 34.2715 W,142.68,124.94,1207.8,11,1,N0,2,2,2,2,2,1,1,1,N0,1,1,1,0,0,0,0,0,n0,0,0,0,0,0,0,0,0,n0,0,0,0,0,0,0,0,0
25/10/11,10:35:00,51 39.3573 N,001 33.9579 W,143.55,125.19,1176.9,11,1,N1,1,1,1,1,0,0,0,0,N1,0,0,0,0,0,0,0,0,n1,0,0,0,0,0,0,0,0,n1,0,0,0,0,0,0,0,0
25/10/11,10:35:07,51 39.1946 N,001 33.5916 W,144.49,125.78,1141.3,11,1,N2,2,2,2,2,2,2,2,1,N2,1,1,1,1,1,1,0,0,n2,0,0,0,0,0,0,0,0,n2,0,0,0,0,0,0,0,0
25/10/11,10:35:13,51 39.0541 N,001 33.2806 W,142.97,126.14,1122.8,11,1,N3,3,3,3,3,3,2,2,2,N3,2,2,2,2,1,1,0,0,n3,0,0,0,0,0,0,0,0,n3,0,0,0,0,0,0,0,0
25/10/11,10:35:19,51 38.9164 N,001 32.9788 W,138.57,126.26,1116.1,11,1,N4,4,4,3,3,3,3,3,3,N4,3,3,2,2,1,0,0,0,n4,0,0,0,0,0,0,0,0,n4,0,0,0,0,0,0,0,0
25/10/11,10:35:24,51 38.8045 N,001 32.7352 W,134.75,126.43,1112.2,11,1,N5,4,4,3,3,3,3,3,3,N5,3,3,2,2,2,1,1,0,n5,0,0,0,0,0,0,0,0,n5,0,0,0,0,0,0,0,0
25/10/11,10:35:30,51 38.6731 N,001 32.4514 W,131.05,126.73,1106.2,11,1,N6,1,1,1,1,0,0,0,0,N6,0,0,0,0,0,0,0,0,n6,0,0,0,0,0,0,0,0,n6,0,0,0,0,0,0,0,0
25/10/11,10:35:37,51 38.5170 N,001 32.1264 W,132.64,128.16,1093.4,11,1,N7,42,41,41,41,41,41,41,41,N7,41,41,41,41,40,40,40,38,n7,22,20,20,16,0,0,0,0,n7,0,0,0,0,0,0,0,0
25/10/11,10:35:43,51 38.3754 N,001 31.8462 W,136.02,129.47,1077.6,11,1,N8,3,3,2,2,2,2,2,2,N8,2,2,2,2,1,0,0,0,n8,0,0,0,0,0,0,0,0,n8,0,0,0,0,0,0,0,0
25/10/11,10:35:49,51 38.2263 N,001 31.5635 W,140.08,130.50,1056.4,11,1,N9,7,7,6,6,6,6,6,6,N9,5,5,5,4,4,4,1,0,n9,0,0,0,0,0,0,0,0,n9,0,0,0,0,0,0,0,0
25/10/11,10:35:54,51 38.0963 N,001 31.3234 W,143.81,131.08,1037.4,11,1,N0,7,6,6,6,5,5,5,5,N0,5,5,5,4,3,3,3,0,n0,0,0,0,0,0,0,0,0,n0,0,0,0,0,0,0,0,0
25/10/11,10:36:00,51 37.9344 N,001 31.0308 W,147.61,131.69,1014.2,11,1,N1,13,12,12,12,11,11,11,11,N1,11,11,11,10,10,8,8,8,n1,7,0,0,0,0,0,0,0,n1,0,0,0,0,0,0,0,0
25/10/11,10:36:07,51 37.7392 N,001 30.6813 W,152.03,131.81,982.2,11,1,N2,18,18,17,17,17,17,17,17,N2,16,16,16,16,16,14,14,14,n2,6,6,4,0,0,0,0,0,n2,0,0,0,0,0,0,0,0
25/10/11,10:36:13,51 37.5684 N,001 30.3749 W,154.17,131.64,956.1,11,1,N3,23,23,22,22,22,21,21,21,N3,21,20,20,19,18,18,15,13,n3,12,9,9,0,0,0,0,0,n3,0,0,0,0,0,0,0,0
25/10/11,10:36:19,51 37.3990 N,001 30.0639 W,154.54,130.95,932.0,11,1,N4,9,9,8,8,8,8,8,8,N4,7,7,7,6,6,5,3,0,n4,0,0,0,0,0,0,0,0,n4,0,0,0,0,0,0,0,0
25/10/11,10:36:24,51 37.2598 N,001 29.8024 W,154.37,130.28,913.6,11,1,N5,4,4,3,3,3,3,3,3,N5,3,2,2,2,2,1,0,0,n5,0,0,0,0,0,0,0,0,n5,0,0,0,0,0,0,0,0
25/10/11,10:36:30,51 37.0959 N,001 29.4849 W,154.03,129.31,893.5,11,1,N6,26,25,25,25,24,24,24,24,N6,24,24,23,23,23,22,22,21,n6,20,16,16,16,0,0,0,0,n6,0,0,0,0,0,0,0,0
25/10/11,10:36:37,51 36.9096 N,001 29.1112 W,153.25,128.29,870.3,11,1,N7,19,19,19,19,19,19,19,18,N7,18,18,18,18,18,18,18,12,n7,8,8,8,8,0,0,0,0,n7,0,0,0,0,0,0,0,0
25/10/11,10:36:43,51 36.7545 N,001 28.7880 W,152.22,127.41,852.8,11,1,N8,56,56,56,56,55,55,55,55,N8,55,55,54,54,53,53,52,47,n8,32,29,29,24,16,0,0,0,n8,0,0,0,0,0,0,0,0
25/10/11,10:36:49,51 36.6041 N,001 28.4623 W,151.39,126.24,835.4,11,1,N9,27,27,26,26,26,26,26,26,N9,25,25,25,25,25,24,21,18,n9,17,17,12,8,0,0,0,0,n9,0,0,0,0,0,0,0,0
25/10/11,10:36:54,51 36.4807 N,001 28.1909 W,150.71,126.31,821.0,11,1,N0,14,13,13,13,13,13,13,13,N0,13,12,12,12,11,11,11,10,n0,7,7,0,0,0,0,0,0,n0,0,0,0,0,0,0,0,0
25/10/11,10:37:00,51 36.3280 N,001 27.8748 W,149.04,128.68,805.4,11,1,N1,20,20,20,20,20,19,19,19,N1,19,19,19,19,19,16,16,16,n1,10,9,0,0,0,0,0,0,n1,0,0,0,0,0,0,0,0
25/10/11,10:37:07,51 36.1322 N,001 27.5395 W,146.69,135.07,786.3,11,1,N2,26,26,25,25,25,25,25,25,N2,25,25,25,25,24,23,22,22,n2,13,6,0,0,0,0,0,0,n2,0,0,0,0,0,0,0,0
25/10/11,10:37:13,51 35.9560 N,001 27.2717 W,145.44,137.01,768.3,11,1,N3,24,24,23,23,23,23,23,23,N3,23,23,22,22,22,20,19,18,n3,4,4,0,0,0,0,0,0,n3,0,0,0,0,0,0,0,0
25/10/11,10:37:19,51 35.7797 N,001 27.0065 W,144.96,136.46,749.6,11,1,N4,20,20,20,20,20,20,20,20,N4,20,20,20,20,20,20,20,14,n4,11,11,11,0,0,0,0,0,n4,0,0,0,0,0,0,0,0
25/10/11,10:37:24,51 35.6356 N,001 26.7827 W,144.45,135.63,735.1,11,1,N5,26,26,25,25,25,25,25,25,N5,25,25,24,24,23,23,23,22,n5,9,9,9,0,0,0,0,0,n5,0,0,0,0,0,0,0,0
25/10/11,10:37:30,51 35.4652 N,001 26.5114 W,144.14,134.92,715.8,11,1,N6,7,7,7,7,7,7,7,7,N6,6,6,6,6,5,4,1,0,n6,0,0,0,0,0,0,0,0,n6,0,0,0,0,0,0,0,0